GEFSNGP_prec_meanprecacc_078.txt.gz
Total_Precipitation_Accumulation
0.25 0.24 0.20 0.19 0.16 0.13 0.13 0.15 0.34 0.63 0.87 1.19 1.37 1.31 1.31 1.29 1.05 0.82 0.71 0.69 0.70 0.69 0.62 0.54 0.51 0.48 0.43 0.40 0.36 0.33 0.32 0.32 0.31 0.30 0.30 0.32 0.33 0.33 0.33 0.31 0.28 0.25 0.21 0.17
0.21 0.17 0.20 0.24 0.23 0.23 0.28 0.31 0.41 0.71 1.06 1.48 1.58 1.45 1.39 1.35 1.19 1.01 0.93 0.92 0.89 0.82 0.74 0.70 0.67 0.63 0.57 0.51 0.48 0.46 0.45 0.45 0.45 0.43 0.42 0.40 0.36 0.31 0.27 0.22 0.16 0.12 0.09 0.07
0.32 0.21 0.28 0.46 0.35 0.29 0.35 0.41 0.56 0.83 1.06 1.24 1.34 1.40 1.44 1.50 1.44 1.24 1.11 1.06 1.05 1.02 0.94 0.86 0.81 0.77 0.73 0.66 0.60 0.57 0.56 0.55 0.54 0.49 0.43 0.34 0.25 0.18 0.14 0.11 0.09 0.07 0.05 0.03
0.29 0.32 0.60 0.52 0.23 0.25 0.37 0.41 0.52 0.62 0.74 0.91 0.98 1.08 1.15 1.23 1.24 1.19 1.08 1.06 1.05 1.04 1.02 0.98 0.89 0.80 0.76 0.70 0.64 0.60 0.58 0.53 0.48 0.39 0.30 0.22 0.15 0.12 0.10 0.09 0.07 0.05 0.04 0.04
0.26 0.41 0.52 0.44 0.21 0.19 0.39 0.60 0.55 0.55 0.52 0.56 0.60 0.66 0.89 1.02 1.04 1.09 1.15 1.18 1.13 1.07 0.98 0.92 0.85 0.77 0.73 0.71 0.65 0.58 0.51 0.40 0.30 0.22 0.16 0.12 0.10 0.10 0.09 0.08 0.06 0.05 0.04 0.05
0.26 0.45 0.58 0.54 0.21 0.12 0.31 0.82 0.77 0.67 0.61 0.62 0.70 0.76 0.80 0.85 0.86 0.93 0.99 1.00 0.93 0.83 0.73 0.67 0.66 0.63 0.58 0.54 0.47 0.38 0.29 0.21 0.16 0.14 0.11 0.09 0.08 0.08 0.07 0.07 0.06 0.05 0.04 0.05
0.29 0.44 0.53 0.23 0.09 0.18 0.55 0.86 0.83 0.71 0.62 0.64 0.80 0.79 0.62 0.60 0.65 0.69 0.74 0.72 0.66 0.61 0.58 0.54 0.49 0.43 0.37 0.31 0.27 0.20 0.16 0.14 0.12 0.10 0.08 0.07 0.07 0.06 0.06 0.06 0.08 0.08 0.08 0.08
0.33 0.49 0.56 0.18 0.12 0.30 0.45 0.47 0.57 0.57 0.54 0.53 0.49 0.40 0.37 0.38 0.41 0.44 0.46 0.46 0.42 0.41 0.38 0.34 0.30 0.26 0.24 0.20 0.15 0.11 0.11 0.12 0.11 0.08 0.04 0.05 0.08 0.08 0.07 0.09 0.11 0.11 0.12 0.11
0.30 0.44 0.37 0.18 0.16 0.22 0.29 0.42 0.40 0.37 0.33 0.26 0.23 0.21 0.22 0.24 0.26 0.28 0.28 0.30 0.30 0.26 0.23 0.23 0.22 0.21 0.19 0.15 0.12 0.10 0.11 0.12 0.10 0.07 0.06 0.05 0.07 0.08 0.09 0.10 0.09 0.08 0.09 0.10
0.10 0.19 0.19 0.17 0.17 0.17 0.19 0.25 0.23 0.22 0.21 0.16 0.15 0.18 0.20 0.22 0.21 0.21 0.23 0.23 0.23 0.21 0.20 0.20 0.19 0.19 0.18 0.14 0.14 0.16 0.18 0.14 0.11 0.10 0.08 0.07 0.08 0.07 0.07 0.09 0.07 0.07 0.09 0.09
0.09 0.15 0.20 0.25 0.17 0.13 0.13 0.14 0.15 0.17 0.16 0.13 0.10 0.13 0.16 0.19 0.20 0.21 0.21 0.21 0.20 0.22 0.20 0.16 0.15 0.15 0.13 0.14 0.16 0.21 0.21 0.15 0.11 0.09 0.09 0.10 0.10 0.06 0.04 0.05 0.02 0.03 0.05 0.05
0.13 0.14 0.21 0.28 0.19 0.12 0.16 0.17 0.17 0.15 0.13 0.13 0.10 0.10 0.13 0.16 0.20 0.20 0.17 0.16 0.19 0.19 0.15 0.13 0.12 0.12 0.11 0.12 0.14 0.18 0.20 0.14 0.08 0.06 0.07 0.07 0.10 0.11 0.04 0.01 0.00 0.00 0.00 0.01
0.06 0.06 0.10 0.11 0.10 0.10 0.13 0.17 0.19 0.18 0.15 0.13 0.13 0.13 0.14 0.16 0.15 0.16 0.14 0.14 0.15 0.13 0.10 0.08 0.08 0.09 0.09 0.09 0.09 0.12 0.14 0.09 0.05 0.04 0.05 0.07 0.09 0.15 0.17 0.08 0.01 0.01 0.01 0.01
0.02 0.03 0.06 0.09 0.12 0.12 0.15 0.18 0.18 0.16 0.17 0.19 0.17 0.14 0.12 0.11 0.11 0.12 0.11 0.09 0.07 0.06 0.06 0.06 0.06 0.05 0.04 0.05 0.07 0.07 0.06 0.03 0.03 0.04 0.04 0.05 0.05 0.07 0.12 0.16 0.16 0.10 0.04 0.02
0.02 0.04 0.08 0.13 0.18 0.17 0.18 0.20 0.19 0.15 0.15 0.17 0.13 0.10 0.08 0.07 0.08 0.07 0.06 0.05 0.05 0.05 0.04 0.04 0.04 0.04 0.02 0.03 0.04 0.04 0.04 0.04 0.04 0.03 0.02 0.03 0.03 0.03 0.04 0.07 0.14 0.17 0.13 0.06
0.04 0.05 0.08 0.14 0.21 0.21 0.22 0.23 0.18 0.14 0.10 0.08 0.07 0.06 0.05 0.04 0.04 0.04 0.04 0.04 0.05 0.05 0.05 0.05 0.05 0.04 0.02 0.02 0.03 0.03 0.03 0.02 0.02 0.01 0.01 0.01 0.02 0.01 0.02 0.04 0.08 0.12 0.12 0.07
0.06 0.07 0.08 0.11 0.15 0.17 0.15 0.11 0.08 0.06 0.05 0.04 0.04 0.03 0.02 0.03 0.03 0.03 0.02 0.02 0.03 0.04 0.04 0.03 0.03 0.02 0.01 0.00 0.02 0.02 0.02 0.01 0.00 0.00 0.00 0.01 0.01 0.01 0.01 0.02 0.05 0.07 0.06 0.04
0.10 0.09 0.08 0.08 0.09 0.09 0.06 0.04 0.03 0.03 0.02 0.01 0.01 0.01 0.02 0.02 0.02 0.01 0.01 0.01 0.01 0.02 0.02 0.01 0.01 0.01 0.00 0.00 0.00 0.01 0.01 0.00 0.00 0.00 0.00 0.00 0.01 0.01 0.01 0.02 0.03 0.04 0.05 0.05
0.06 0.04 0.04 0.04 0.03 0.03 0.02 0.02 0.02 0.01 0.00 0.00 0.00 0.01 0.01 0.01 0.00 0.00 0.00 0.00 0.01 0.01 0.01 0.00 0.00 0.00 0.00 0.00 0.00 0.00 0.00 0.00 0.00 0.00 0.00 0.00 0.00 0.00 0.00 0.01 0.02 0.03 0.04 0.05
0.01 0.01 0.01 0.02 0.01 0.01 0.01 0.01 0.00 0.00 0.00 0.00 0.00 0.00 0.00 0.00 0.00 0.00 0.00 0.00 0.00 0.00 0.00 0.00 0.00 0.00 0.00 0.00 0.00 0.00 0.00 0.00 0.00 0.00 0.00 0.00 0.00 0.00 0.00 0.00 0.01 0.02 0.03 0.04
0.01 0.01 0.01 0.01 0.01 0.00 0.00 0.00 0.00 0.00 0.00 0.00 0.00 0.00 0.00 0.00 0.00 0.00 0.00 0.00 0.00 0.00 0.00 0.00 0.00 0.00 0.00 0.00 0.00 0.00 0.00 0.00 0.00 0.00 0.00 0.00 0.00 0.00 0.00 0.00 0.01 0.01 0.02 0.03
0.01 0.00 0.00 0.00 0.00 0.00 0.00 0.00 0.00 0.00 0.00 0.00 0.00 0.00 0.00 0.00 0.00 0.00 0.00 0.00 0.00 0.00 0.00 0.00 0.00 0.00 0.00 0.00 0.00 0.00 0.00 0.00 0.00 0.00 0.00 0.00 0.00 0.00 0.01 0.01 0.01 0.01 0.02 0.03
0.02 0.01 0.00 0.00 0.00 0.00 0.00 0.00 0.00 0.00 0.00 0.00 0.00 0.00 0.00 0.00 0.00 0.00 0.00 0.00 0.00 0.00 0.00 0.00 0.00 0.00 0.00 0.00 0.00 0.00 0.00 0.00 0.00 0.00 0.00 0.00 0.00 0.00 0.00 0.00 0.00 0.01 0.01 0.01
0.05 0.02 0.00 0.00 0.00 0.00 0.00 0.00 0.00 0.00 0.00 0.00 0.00 0.00 0.00 0.00 0.00 0.00 0.00 0.00 0.00 0.00 0.00 0.00 0.00 0.00 0.00 0.00 0.00 0.00 0.00 0.00 0.00 0.00 0.00 0.00 0.00 0.00 0.00 0.00 0.00 0.00 0.00 0.00
0.04 0.02 0.01 0.00 0.00 0.00 0.00 0.00 0.00 0.00 0.00 0.00 0.00 0.00 0.00 0.00 0.00 0.00 0.00 0.00 0.00 0.00 0.00 0.00 0.00 0.00 0.00 0.00 0.00 0.00 0.00 0.00 0.00 0.00 0.00 0.00 0.00 0.00 0.00 0.00 0.00 0.00 0.00 0.00
0.08 0.06 0.02 0.01 0.01 0.00 0.00 0.00 0.00 0.00 0.00 0.00 0.00 0.00 0.00 0.00 0.00 0.00 0.00 0.00 0.00 0.00 0.00 0.00 0.00 0.00 0.00 0.00 0.00 0.00 0.00 0.00 0.00 0.00 0.00 0.00 0.00 0.00 0.00 0.00 0.00 0.00 0.00 0.00
0.15 0.12 0.06 0.05 0.05 0.01 0.00 0.00 0.00 0.00 0.00 0.00 0.00 0.00 0.00 0.00 0.00 0.00 0.00 0.00 0.00 0.00 0.00 0.00 0.00 0.00 0.00 0.00 0.00 0.00 0.00 0.00 0.00 0.00 0.00 0.00 0.00 0.00 0.00 0.00 0.00 0.00 0.00 0.00

GEFSNGP_prec_meanprecacc_084.txt.gz
Total_Precipitation_Accumulation
0.26 0.26 0.23 0.21 0.18 0.15 0.15 0.18 0.38 0.66 0.91 1.23 1.42 1.35 1.33 1.31 1.09 0.85 0.73 0.70 0.71 0.71 0.64 0.57 0.54 0.51 0.47 0.46 0.43 0.39 0.37 0.38 0.36 0.33 0.32 0.33 0.33 0.34 0.33 0.32 0.29 0.25 0.21 0.17
0.23 0.18 0.22 0.26 0.26 0.27 0.31 0.34 0.45 0.73 1.09 1.52 1.62 1.48 1.40 1.36 1.21 1.03 0.94 0.93 0.90 0.83 0.76 0.71 0.69 0.64 0.60 0.56 0.53 0.51 0.49 0.50 0.50 0.47 0.45 0.42 0.37 0.32 0.27 0.22 0.17 0.12 0.09 0.07
0.34 0.22 0.31 0.51 0.40 0.33 0.38 0.45 0.59 0.86 1.09 1.27 1.36 1.42 1.46 1.52 1.45 1.25 1.11 1.07 1.06 1.03 0.95 0.88 0.83 0.80 0.76 0.69 0.64 0.62 0.60 0.58 0.57 0.53 0.46 0.37 0.27 0.19 0.15 0.12 0.09 0.07 0.05 0.03
0.33 0.35 0.67 0.60 0.30 0.29 0.40 0.47 0.55 0.64 0.77 0.93 1.00 1.10 1.17 1.24 1.24 1.19 1.09 1.07 1.06 1.05 1.04 1.00 0.91 0.83 0.79 0.74 0.67 0.63 0.60 0.56 0.51 0.42 0.33 0.24 0.17 0.13 0.11 0.09 0.08 0.06 0.04 0.04
0.32 0.48 0.59 0.51 0.26 0.23 0.44 0.74 0.63 0.58 0.55 0.58 0.61 0.68 0.90 1.03 1.05 1.09 1.16 1.19 1.15 1.08 1.00 0.95 0.89 0.81 0.77 0.75 0.69 0.61 0.53 0.42 0.32 0.25 0.18 0.14 0.12 0.11 0.10 0.09 0.07 0.05 0.04 0.05
0.34 0.52 0.68 0.64 0.26 0.17 0.36 0.88 0.82 0.69 0.63 0.63 0.71 0.77 0.81 0.85 0.87 0.94 1.00 1.02 0.95 0.86 0.76 0.71 0.69 0.67 0.62 0.57 0.50 0.41 0.30 0.22 0.18 0.16 0.14 0.12 0.10 0.10 0.09 0.08 0.07 0.05 0.05 0.05
0.39 0.58 0.71 0.33 0.13 0.22 0.60 0.90 0.86 0.73 0.64 0.65 0.81 0.80 0.63 0.60 0.65 0.70 0.75 0.74 0.68 0.64 0.62 0.59 0.52 0.45 0.39 0.34 0.30 0.22 0.17 0.15 0.13 0.12 0.10 0.10 0.10 0.09 0.09 0.08 0.08 0.08 0.08 0.08
0.45 0.64 0.72 0.23 0.14 0.32 0.47 0.48 0.58 0.58 0.56 0.55 0.50 0.40 0.38 0.38 0.42 0.46 0.48 0.47 0.44 0.44 0.42 0.38 0.33 0.28 0.26 0.23 0.18 0.14 0.13 0.14 0.14 0.11 0.07 0.08 0.10 0.10 0.09 0.10 0.11 0.11 0.12 0.11
0.44 0.55 0.43 0.20 0.18 0.23 0.30 0.42 0.41 0.38 0.36 0.29 0.24 0.22 0.23 0.24 0.26 0.29 0.30 0.32 0.33 0.28 0.26 0.26 0.25 0.23 0.21 0.18 0.15 0.13 0.14 0.15 0.13 0.10 0.09 0.08 0.09 0.10 0.10 0.11 0.10 0.09 0.10 0.10
0.24 0.27 0.23 0.20 0.18 0.18 0.20 0.25 0.24 0.25 0.26 0.18 0.17 0.19 0.21 0.22 0.21 0.22 0.25 0.24 0.25 0.23 0.22 0.23 0.22 0.21 0.19 0.16 0.15 0.18 0.20 0.17 0.13 0.12 0.10 0.09 0.10 0.08 0.08 0.10 0.07 0.08 0.10 0.10
0.19 0.23 0.25 0.28 0.19 0.13 0.13 0.15 0.16 0.20 0.19 0.15 0.12 0.15 0.17 0.20 0.21 0.21 0.23 0.22 0.22 0.24 0.22 0.17 0.16 0.16 0.15 0.16 0.18 0.23 0.23 0.18 0.13 0.11 0.10 0.11 0.11 0.07 0.05 0.05 0.02 0.03 0.06 0.05
0.21 0.20 0.27 0.32 0.20 0.12 0.16 0.18 0.18 0.16 0.15 0.16 0.12 0.11 0.13 0.17 0.21 0.21 0.19 0.18 0.20 0.20 0.17 0.14 0.13 0.14 0.13 0.14 0.15 0.19 0.22 0.16 0.10 0.07 0.08 0.08 0.10 0.11 0.04 0.01 0.00 0.00 0.01 0.01
0.13 0.12 0.15 0.14 0.11 0.11 0.14 0.17 0.19 0.18 0.16 0.15 0.15 0.14 0.15 0.16 0.17 0.18 0.17 0.16 0.18 0.16 0.14 0.11 0.10 0.10 0.10 0.10 0.10 0.13 0.15 0.10 0.05 0.04 0.06 0.07 0.09 0.15 0.17 0.08 0.02 0.01 0.01 0.01
0.05 0.07 0.09 0.10 0.12 0.12 0.15 0.18 0.18 0.16 0.18 0.19 0.17 0.14 0.13 0.11 0.12 0.14 0.14 0.11 0.09 0.08 0.08 0.09 0.07 0.06 0.05 0.05 0.07 0.08 0.06 0.03 0.03 0.04 0.05 0.05 0.05 0.08 0.12 0.16 0.16 0.10 0.04 0.02
0.05 0.06 0.09 0.14 0.18 0.17 0.18 0.20 0.19 0.15 0.16 0.17 0.13 0.10 0.08 0.08 0.09 0.09 0.08 0.06 0.06 0.06 0.05 0.05 0.05 0.04 0.03 0.03 0.05 0.05 0.04 0.04 0.04 0.03 0.02 0.03 0.04 0.04 0.04 0.08 0.14 0.17 0.13 0.06
0.08 0.07 0.09 0.15 0.21 0.21 0.22 0.23 0.18 0.14 0.10 0.08 0.07 0.07 0.06 0.05 0.05 0.05 0.05 0.05 0.05 0.06 0.06 0.06 0.06 0.04 0.02 0.03 0.04 0.03 0.03 0.02 0.02 0.01 0.01 0.02 0.02 0.02 0.02 0.04 0.08 0.12 0.12 0.07
0.09 0.09 0.09 0.11 0.15 0.17 0.15 0.11 0.08 0.06 0.05 0.04 0.04 0.03 0.03 0.03 0.03 0.04 0.03 0.03 0.05 0.06 0.05 0.05 0.04 0.02 0.01 0.01 0.02 0.02 0.02 0.01 0.00 0.00 0.00 0.01 0.01 0.01 0.01 0.02 0.05 0.08 0.06 0.04
0.12 0.10 0.09 0.08 0.09 0.09 0.06 0.04 0.03 0.03 0.02 0.02 0.01 0.01 0.02 0.02 0.02 0.02 0.01 0.01 0.02 0.03 0.03 0.01 0.01 0.01 0.01 0.00 0.01 0.01 0.01 0.00 0.00 0.00 0.00 0.00 0.01 0.01 0.01 0.02 0.03 0.04 0.05 0.05
0.07 0.05 0.04 0.04 0.04 0.03 0.02 0.02 0.02 0.01 0.00 0.00 0.00 0.01 0.01 0.01 0.01 0.00 0.00 0.00 0.01 0.02 0.02 0.01 0.00 0.01 0.00 0.00 0.00 0.00 0.00 0.00 0.00 0.00 0.00 0.00 0.00 0.00 0.00 0.01 0.02 0.03 0.04 0.05
0.02 0.01 0.02 0.02 0.01 0.01 0.01 0.01 0.00 0.00 0.00 0.00 0.00 0.00 0.00 0.00 0.00 0.00 0.00 0.00 0.00 0.00 0.00 0.00 0.00 0.00 0.00 0.00 0.00 0.00 0.00 0.00 0.00 0.00 0.00 0.00 0.00 0.00 0.00 0.00 0.01 0.02 0.03 0.04
0.01 0.01 0.01 0.01 0.01 0.00 0.00 0.00 0.00 0.00 0.00 0.00 0.00 0.00 0.00 0.00 0.00 0.00 0.00 0.00 0.00 0.00 0.00 0.00 0.00 0.00 0.00 0.00 0.00 0.00 0.00 0.00 0.00 0.00 0.00 0.00 0.00 0.00 0.00 0.00 0.01 0.01 0.02 0.03
0.01 0.01 0.01 0.00 0.00 0.00 0.00 0.00 0.00 0.00 0.00 0.00 0.00 0.00 0.00 0.00 0.00 0.00 0.00 0.00 0.00 0.00 0.00 0.00 0.00 0.00 0.00 0.00 0.00 0.00 0.00 0.00 0.00 0.00 0.00 0.00 0.00 0.00 0.01 0.01 0.01 0.01 0.02 0.03
0.02 0.01 0.00 0.00 0.00 0.00 0.00 0.00 0.00 0.00 0.00 0.00 0.00 0.00 0.00 0.00 0.00 0.00 0.00 0.00 0.00 0.00 0.00 0.00 0.00 0.00 0.00 0.00 0.00 0.00 0.00 0.00 0.00 0.00 0.00 0.00 0.00 0.00 0.00 0.00 0.00 0.01 0.01 0.01
0.05 0.02 0.00 0.00 0.00 0.00 0.00 0.00 0.00 0.00 0.00 0.00 0.00 0.00 0.00 0.00 0.00 0.00 0.00 0.00 0.00 0.00 0.00 0.00 0.00 0.00 0.00 0.00 0.00 0.00 0.00 0.00 0.00 0.00 0.00 0.00 0.00 0.00 0.00 0.00 0.00 0.00 0.00 0.00
0.04 0.02 0.01 0.00 0.00 0.00 0.00 0.00 0.00 0.00 0.00 0.00 0.00 0.00 0.00 0.00 0.00 0.00 0.00 0.00 0.00 0.00 0.00 0.00 0.00 0.00 0.00 0.00 0.00 0.00 0.00 0.00 0.00 0.00 0.00 0.00 0.00 0.00 0.00 0.00 0.00 0.00 0.00 0.00
0.09 0.06 0.03 0.01 0.01 0.00 0.00 0.00 0.00 0.00 0.00 0.00 0.00 0.00 0.00 0.00 0.00 0.00 0.00 0.00 0.00 0.00 0.00 0.00 0.00 0.00 0.00 0.00 0.00 0.00 0.00 0.00 0.00 0.00 0.00 0.00 0.00 0.00 0.00 0.00 0.00 0.00 0.00 0.00
0.16 0.12 0.06 0.05 0.05 0.01 0.00 0.00 0.00 0.00 0.00 0.00 0.00 0.00 0.00 0.00 0.00 0.00 0.00 0.00 0.00 0.00 0.00 0.00 0.00 0.00 0.00 0.00 0.00 0.00 0.00 0.00 0.00 0.00 0.00 0.00 0.00 0.00 0.00 0.00 0.00 0.00 0.00 0.00

GEFSNGP_prec_meanprecacc_090.txt.gz
Total_Precipitation_Accumulation
0.27 0.27 0.24 0.23 0.19 0.17 0.17 0.19 0.39 0.67 0.91 1.23 1.42 1.35 1.33 1.31 1.10 0.85 0.74 0.70 0.71 0.72 0.65 0.58 0.55 0.52 0.49 0.48 0.46 0.44 0.43 0.44 0.41 0.36 0.35 0.37 0.38 0.39 0.36 0.34 0.31 0.27 0.23 0.19
0.23 0.19 0.23 0.27 0.27 0.28 0.32 0.35 0.46 0.74 1.09 1.52 1.62 1.48 1.41 1.36 1.22 1.03 0.95 0.93 0.90 0.83 0.76 0.72 0.70 0.66 0.62 0.58 0.56 0.55 0.54 0.54 0.54 0.52 0.50 0.46 0.41 0.37 0.30 0.25 0.19 0.14 0.10 0.08
0.35 0.22 0.31 0.52 0.41 0.34 0.39 0.47 0.60 0.86 1.10 1.27 1.36 1.42 1.46 1.52 1.45 1.25 1.12 1.08 1.06 1.03 0.96 0.89 0.84 0.81 0.78 0.72 0.67 0.65 0.64 0.62 0.60 0.56 0.50 0.41 0.30 0.24 0.19 0.15 0.12 0.09 0.06 0.04
0.33 0.36 0.67 0.60 0.31 0.30 0.40 0.48 0.56 0.65 0.77 0.93 1.00 1.10 1.17 1.24 1.25 1.20 1.09 1.07 1.07 1.05 1.05 1.00 0.92 0.84 0.81 0.77 0.70 0.67 0.65 0.60 0.54 0.44 0.35 0.27 0.21 0.18 0.14 0.12 0.10 0.07 0.05 0.05
0.33 0.48 0.59 0.52 0.27 0.24 0.45 0.75 0.64 0.59 0.55 0.58 0.61 0.68 0.91 1.04 1.05 1.10 1.17 1.20 1.16 1.09 1.01 0.97 0.91 0.83 0.80 0.78 0.73 0.64 0.57 0.46 0.37 0.28 0.21 0.15 0.14 0.14 0.13 0.11 0.08 0.07 0.06 0.06
0.35 0.53 0.68 0.65 0.27 0.18 0.38 0.90 0.82 0.69 0.64 0.64 0.71 0.77 0.82 0.86 0.87 0.94 1.01 1.03 0.96 0.87 0.78 0.74 0.73 0.69 0.64 0.60 0.55 0.46 0.34 0.25 0.21 0.19 0.17 0.14 0.12 0.12 0.11 0.10 0.09 0.07 0.06 0.06
0.40 0.59 0.72 0.34 0.14 0.24 0.63 0.91 0.86 0.73 0.64 0.65 0.82 0.80 0.63 0.61 0.66 0.70 0.76 0.75 0.70 0.66 0.66 0.63 0.55 0.47 0.42 0.37 0.33 0.27 0.21 0.18 0.16 0.14 0.11 0.12 0.12 0.11 0.10 0.10 0.11 0.10 0.09 0.09
0.46 0.65 0.72 0.24 0.16 0.34 0.48 0.49 0.58 0.58 0.57 0.56 0.51 0.42 0.38 0.39 0.43 0.46 0.49 0.50 0.47 0.47 0.48 0.44 0.36 0.31 0.30 0.27 0.21 0.17 0.17 0.17 0.16 0.13 0.09 0.09 0.12 0.12 0.11 0.12 0.14 0.14 0.14 0.12
0.47 0.57 0.45 0.22 0.19 0.24 0.31 0.43 0.41 0.38 0.37 0.30 0.26 0.23 0.23 0.25 0.27 0.30 0.32 0.35 0.36 0.32 0.30 0.30 0.29 0.27 0.25 0.22 0.18 0.17 0.19 0.19 0.17 0.13 0.11 0.10 0.11 0.12 0.12 0.13 0.12 0.10 0.11 0.12
0.27 0.30 0.25 0.21 0.20 0.19 0.21 0.26 0.24 0.25 0.27 0.20 0.18 0.20 0.22 0.23 0.22 0.23 0.26 0.27 0.28 0.26 0.25 0.26 0.24 0.24 0.24 0.20 0.20 0.24 0.25 0.21 0.16 0.14 0.12 0.10 0.11 0.09 0.09 0.11 0.08 0.08 0.10 0.10
0.22 0.25 0.27 0.30 0.20 0.14 0.14 0.15 0.16 0.21 0.21 0.16 0.13 0.16 0.18 0.20 0.21 0.22 0.24 0.25 0.25 0.26 0.24 0.20 0.18 0.18 0.18 0.20 0.23 0.29 0.27 0.20 0.15 0.12 0.11 0.12 0.11 0.07 0.05 0.06 0.02 0.04 0.06 0.06
0.23 0.22 0.29 0.34 0.22 0.13 0.17 0.18 0.18 0.17 0.16 0.16 0.13 0.13 0.14 0.18 0.21 0.21 0.20 0.20 0.23 0.24 0.19 0.16 0.15 0.15 0.15 0.17 0.18 0.22 0.24 0.18 0.11 0.08 0.08 0.08 0.11 0.11 0.05 0.01 0.01 0.01 0.01 0.01
0.15 0.14 0.17 0.15 0.11 0.11 0.14 0.18 0.19 0.18 0.16 0.15 0.16 0.15 0.15 0.16 0.17 0.18 0.17 0.17 0.20 0.19 0.17 0.14 0.12 0.12 0.12 0.13 0.13 0.14 0.16 0.11 0.06 0.06 0.06 0.07 0.09 0.15 0.17 0.08 0.02 0.01 0.01 0.01
0.06 0.08 0.10 0.11 0.13 0.12 0.15 0.19 0.18 0.16 0.18 0.20 0.18 0.15 0.13 0.11 0.12 0.15 0.14 0.12 0.10 0.10 0.11 0.11 0.09 0.08 0.07 0.08 0.10 0.09 0.07 0.04 0.03 0.05 0.05 0.05 0.05 0.08 0.12 0.16 0.16 0.10 0.04 0.02
0.06 0.07 0.10 0.14 0.18 0.17 0.18 0.21 0.19 0.15 0.16 0.17 0.13 0.10 0.08 0.08 0.09 0.10 0.08 0.07 0.07 0.08 0.07 0.06 0.06 0.06 0.04 0.04 0.06 0.05 0.04 0.04 0.04 0.03 0.02 0.03 0.04 0.04 0.04 0.08 0.14 0.17 0.13 0.06
0.09 0.08 0.10 0.16 0.22 0.22 0.22 0.23 0.18 0.14 0.10 0.08 0.07 0.07 0.06 0.05 0.05 0.05 0.06 0.05 0.07 0.08 0.08 0.07 0.07 0.05 0.02 0.03 0.04 0.03 0.03 0.03 0.03 0.02 0.01 0.02 0.02 0.02 0.02 0.04 0.08 0.12 0.12 0.07
0.11 0.09 0.10 0.12 0.15 0.18 0.15 0.11 0.08 0.06 0.05 0.04 0.04 0.03 0.03 0.03 0.04 0.04 0.04 0.04 0.06 0.07 0.07 0.06 0.05 0.02 0.01 0.01 0.02 0.02 0.02 0.01 0.00 0.00 0.00 0.01 0.01 0.01 0.01 0.02 0.05 0.08 0.06 0.04
0.12 0.10 0.09 0.09 0.09 0.09 0.06 0.04 0.03 0.03 0.02 0.02 0.01 0.01 0.02 0.03 0.02 0.02 0.02 0.02 0.03 0.04 0.04 0.02 0.02 0.02 0.01 0.01 0.01 0.01 0.01 0.01 0.00 0.00 0.00 0.00 0.01 0.01 0.01 0.02 0.03 0.04 0.05 0.05
0.07 0.05 0.04 0.04 0.04 0.03 0.02 0.02 0.02 0.01 0.00 0.00 0.00 0.01 0.01 0.01 0.01 0.01 0.01 0.01 0.01 0.02 0.02 0.01 0.01 0.01 0.01 0.01 0.00 0.00 0.00 0.00 0.00 0.00 0.00 0.00 0.00 0.00 0.00 0.01 0.02 0.03 0.04 0.05
0.02 0.02 0.02 0.02 0.01 0.01 0.01 0.01 0.00 0.00 0.00 0.00 0.00 0.00 0.00 0.00 0.00 0.00 0.00 0.00 0.00 0.00 0.00 0.00 0.00 0.00 0.00 0.00 0.00 0.00 0.00 0.00 0.00 0.00 0.00 0.00 0.00 0.00 0.00 0.00 0.01 0.02 0.03 0.04
0.01 0.01 0.01 0.01 0.01 0.01 0.00 0.00 0.00 0.00 0.00 0.00 0.00 0.00 0.00 0.00 0.00 0.00 0.00 0.00 0.00 0.00 0.00 0.00 0.00 0.00 0.00 0.00 0.00 0.00 0.00 0.00 0.00 0.00 0.00 0.00 0.00 0.00 0.00 0.00 0.01 0.01 0.02 0.03
0.02 0.01 0.01 0.00 0.00 0.00 0.00 0.00 0.00 0.00 0.00 0.00 0.00 0.00 0.00 0.00 0.00 0.00 0.00 0.00 0.00 0.00 0.00 0.00 0.00 0.00 0.00 0.00 0.00 0.00 0.00 0.00 0.00 0.00 0.00 0.00 0.00 0.00 0.01 0.01 0.01 0.01 0.02 0.03
0.02 0.01 0.00 0.00 0.00 0.00 0.00 0.00 0.00 0.00 0.00 0.00 0.00 0.00 0.00 0.00 0.00 0.00 0.00 0.00 0.00 0.00 0.00 0.00 0.00 0.00 0.00 0.00 0.00 0.00 0.00 0.00 0.00 0.00 0.00 0.00 0.00 0.00 0.00 0.00 0.00 0.01 0.01 0.01
0.06 0.02 0.01 0.00 0.00 0.00 0.00 0.00 0.00 0.00 0.00 0.00 0.00 0.00 0.00 0.00 0.00 0.00 0.00 0.00 0.00 0.00 0.00 0.00 0.00 0.00 0.00 0.00 0.00 0.00 0.00 0.00 0.00 0.00 0.00 0.00 0.00 0.00 0.00 0.00 0.00 0.00 0.00 0.00
0.05 0.02 0.01 0.00 0.00 0.00 0.00 0.00 0.00 0.00 0.00 0.00 0.00 0.00 0.00 0.00 0.00 0.00 0.00 0.00 0.00 0.00 0.00 0.00 0.00 0.00 0.00 0.00 0.00 0.00 0.00 0.00 0.00 0.00 0.00 0.00 0.00 0.00 0.00 0.00 0.00 0.00 0.00 0.00
0.09 0.07 0.03 0.01 0.01 0.00 0.00 0.00 0.00 0.00 0.00 0.00 0.00 0.00 0.00 0.00 0.00 0.00 0.00 0.00 0.00 0.00 0.00 0.00 0.00 0.00 0.00 0.00 0.00 0.00 0.00 0.00 0.00 0.00 0.00 0.00 0.00 0.00 0.00 0.00 0.00 0.00 0.00 0.00
0.18 0.13 0.07 0.06 0.05 0.01 0.00 0.00 0.00 0.00 0.00 0.00 0.00 0.00 0.00 0.00 0.00 0.00 0.00 0.00 0.00 0.00 0.00 0.00 0.00 0.00 0.00 0.00 0.00 0.00 0.00 0.00 0.00 0.00 0.00 0.00 0.00 0.00 0.00 0.00 0.00 0.00 0.00 0.00

GEFSNGP_prec_meanprecacc_096.txt.gz
Total_Precipitation_Accumulation
0.27 0.27 0.24 0.23 0.19 0.18 0.17 0.19 0.40 0.68 0.92 1.25 1.43 1.36 1.33 1.31 1.10 0.85 0.74 0.71 0.72 0.72 0.65 0.58 0.55 0.53 0.50 0.49 0.47 0.46 0.47 0.48 0.45 0.40 0.37 0.38 0.39 0.43 0.42 0.37 0.34 0.32 0.29 0.27
0.23 0.19 0.23 0.27 0.27 0.28 0.32 0.36 0.47 0.76 1.12 1.53 1.63 1.48 1.41 1.36 1.22 1.04 0.96 0.93 0.90 0.83 0.76 0.73 0.70 0.66 0.62 0.59 0.57 0.56 0.56 0.57 0.57 0.55 0.52 0.48 0.43 0.39 0.34 0.30 0.24 0.19 0.14 0.14
0.35 0.22 0.31 0.52 0.42 0.35 0.40 0.47 0.61 0.91 1.14 1.29 1.37 1.42 1.46 1.53 1.46 1.26 1.13 1.08 1.07 1.04 0.96 0.90 0.86 0.82 0.78 0.73 0.68 0.66 0.66 0.64 0.63 0.58 0.52 0.44 0.33 0.27 0.22 0.19 0.18 0.15 0.11 0.08
0.34 0.37 0.69 0.62 0.31 0.30 0.41 0.49 0.57 0.67 0.79 0.93 1.01 1.11 1.17 1.25 1.26 1.20 1.10 1.08 1.07 1.06 1.05 1.02 0.94 0.86 0.82 0.78 0.72 0.69 0.67 0.63 0.56 0.46 0.38 0.29 0.24 0.21 0.18 0.16 0.17 0.16 0.13 0.11
0.35 0.50 0.61 0.53 0.28 0.25 0.48 0.79 0.65 0.60 0.56 0.59 0.61 0.68 0.91 1.04 1.06 1.11 1.18 1.21 1.17 1.09 1.01 0.97 0.92 0.85 0.82 0.80 0.75 0.66 0.59 0.49 0.39 0.31 0.24 0.19 0.17 0.17 0.16 0.14 0.13 0.12 0.12 0.12
0.37 0.55 0.71 0.67 0.27 0.19 0.40 0.96 0.84 0.70 0.64 0.64 0.71 0.78 0.82 0.86 0.88 0.95 1.02 1.04 0.97 0.88 0.79 0.76 0.75 0.72 0.66 0.62 0.57 0.48 0.36 0.29 0.25 0.23 0.20 0.18 0.16 0.15 0.14 0.13 0.12 0.09 0.08 0.10
0.42 0.62 0.75 0.35 0.14 0.26 0.69 0.97 0.88 0.74 0.64 0.66 0.82 0.81 0.64 0.61 0.66 0.71 0.77 0.76 0.71 0.66 0.68 0.67 0.59 0.50 0.44 0.39 0.36 0.30 0.24 0.21 0.19 0.17 0.14 0.15 0.16 0.14 0.14 0.13 0.14 0.13 0.11 0.10
0.50 0.70 0.77 0.26 0.17 0.37 0.52 0.50 0.59 0.59 0.57 0.56 0.52 0.42 0.39 0.39 0.43 0.47 0.50 0.51 0.49 0.50 0.52 0.49 0.40 0.34 0.33 0.29 0.24 0.20 0.20 0.20 0.19 0.16 0.12 0.13 0.17 0.16 0.14 0.15 0.18 0.17 0.17 0.15
0.51 0.63 0.48 0.24 0.20 0.26 0.32 0.44 0.42 0.39 0.37 0.30 0.27 0.24 0.24 0.27 0.28 0.31 0.33 0.36 0.38 0.35 0.34 0.34 0.33 0.31 0.30 0.26 0.21 0.21 0.22 0.23 0.20 0.16 0.15 0.16 0.17 0.17 0.16 0.17 0.15 0.13 0.14 0.15
0.29 0.32 0.28 0.24 0.21 0.20 0.21 0.27 0.25 0.26 0.27 0.20 0.19 0.21 0.23 0.25 0.23 0.24 0.28 0.29 0.30 0.28 0.28 0.29 0.28 0.27 0.27 0.23 0.23 0.27 0.29 0.25 0.19 0.18 0.17 0.17 0.16 0.13 0.13 0.14 0.11 0.11 0.13 0.13
0.24 0.28 0.30 0.33 0.22 0.15 0.15 0.15 0.17 0.21 0.21 0.17 0.13 0.17 0.18 0.21 0.22 0.23 0.25 0.26 0.27 0.29 0.27 0.23 0.21 0.21 0.20 0.23 0.27 0.33 0.32 0.25 0.18 0.16 0.16 0.16 0.15 0.10 0.07 0.07 0.04 0.06 0.09 0.08
0.26 0.24 0.31 0.37 0.24 0.14 0.17 0.19 0.19 0.17 0.17 0.18 0.15 0.14 0.15 0.18 0.22 0.22 0.20 0.21 0.25 0.26 0.21 0.19 0.18 0.18 0.17 0.20 0.23 0.27 0.30 0.21 0.14 0.11 0.11 0.10 0.12 0.12 0.05 0.02 0.01 0.01 0.02 0.02
0.16 0.14 0.17 0.16 0.12 0.12 0.14 0.18 0.20 0.19 0.17 0.17 0.17 0.16 0.15 0.17 0.17 0.19 0.19 0.19 0.22 0.22 0.19 0.16 0.15 0.16 0.15 0.16 0.17 0.19 0.20 0.14 0.09 0.09 0.10 0.09 0.10 0.16 0.18 0.08 0.02 0.01 0.01 0.02
0.07 0.08 0.11 0.12 0.14 0.13 0.16 0.19 0.19 0.16 0.18 0.20 0.18 0.15 0.13 0.12 0.12 0.15 0.16 0.14 0.12 0.12 0.13 0.14 0.12 0.11 0.10 0.10 0.13 0.11 0.09 0.05 0.04 0.06 0.06 0.07 0.07 0.09 0.13 0.17 0.17 0.11 0.05 0.02
0.07 0.08 0.11 0.15 0.19 0.18 0.19 0.21 0.20 0.16 0.16 0.17 0.14 0.10 0.08 0.08 0.10 0.11 0.10 0.08 0.08 0.10 0.09 0.09 0.09 0.09 0.06 0.06 0.07 0.07 0.05 0.05 0.05 0.04 0.03 0.03 0.04 0.04 0.04 0.08 0.14 0.18 0.14 0.07
0.10 0.09 0.11 0.16 0.22 0.23 0.23 0.24 0.19 0.14 0.10 0.09 0.08 0.07 0.06 0.05 0.06 0.06 0.07 0.06 0.08 0.10 0.10 0.09 0.09 0.07 0.04 0.04 0.05 0.05 0.04 0.03 0.03 0.03 0.02 0.02 0.02 0.02 0.02 0.04 0.08 0.12 0.12 0.07
0.11 0.10 0.10 0.13 0.16 0.19 0.17 0.12 0.09 0.06 0.05 0.04 0.04 0.04 0.03 0.04 0.04 0.05 0.06 0.06 0.08 0.10 0.10 0.09 0.07 0.03 0.01 0.01 0.02 0.02 0.02 0.01 0.00 0.01 0.01 0.01 0.01 0.01 0.02 0.02 0.05 0.08 0.06 0.04
0.12 0.10 0.09 0.09 0.10 0.10 0.07 0.05 0.04 0.03 0.03 0.02 0.01 0.02 0.03 0.03 0.03 0.03 0.03 0.03 0.04 0.07 0.06 0.03 0.03 0.02 0.01 0.01 0.01 0.01 0.01 0.01 0.00 0.00 0.00 0.00 0.01 0.01 0.01 0.02 0.03 0.04 0.05 0.05
0.07 0.05 0.04 0.04 0.04 0.03 0.02 0.02 0.02 0.01 0.01 0.00 0.01 0.02 0.02 0.02 0.01 0.01 0.01 0.01 0.02 0.04 0.04 0.02 0.01 0.01 0.01 0.01 0.01 0.01 0.00 0.00 0.00 0.00 0.00 0.00 0.00 0.00 0.00 0.01 0.02 0.03 0.04 0.05
0.02 0.02 0.02 0.02 0.02 0.01 0.01 0.01 0.01 0.00 0.00 0.00 0.01 0.01 0.01 0.01 0.01 0.01 0.01 0.01 0.02 0.02 0.01 0.01 0.01 0.01 0.01 0.01 0.00 0.00 0.00 0.00 0.00 0.00 0.00 0.00 0.00 0.00 0.00 0.00 0.01 0.02 0.03 0.04
0.02 0.01 0.01 0.01 0.01 0.01 0.00 0.00 0.00 0.00 0.01 0.01 0.01 0.01 0.01 0.00 0.00 0.01 0.01 0.01 0.01 0.01 0.00 0.00 0.01 0.01 0.00 0.00 0.00 0.00 0.00 0.00 0.00 0.00 0.00 0.00 0.00 0.00 0.00 0.00 0.01 0.01 0.02 0.03
0.02 0.01 0.01 0.01 0.00 0.00 0.00 0.00 0.00 0.00 0.00 0.00 0.00 0.00 0.00 0.00 0.00 0.00 0.01 0.01 0.01 0.00 0.00 0.00 0.00 0.00 0.00 0.00 0.00 0.00 0.00 0.00 0.00 0.00 0.00 0.00 0.00 0.00 0.01 0.01 0.01 0.01 0.02 0.03
0.03 0.01 0.01 0.00 0.00 0.00 0.00 0.00 0.00 0.00 0.00 0.00 0.00 0.00 0.00 0.00 0.00 0.00 0.01 0.00 0.00 0.00 0.00 0.00 0.00 0.00 0.00 0.00 0.00 0.00 0.00 0.00 0.00 0.00 0.00 0.00 0.00 0.00 0.00 0.00 0.00 0.01 0.01 0.01
0.06 0.03 0.01 0.00 0.00 0.00 0.00 0.00 0.00 0.00 0.00 0.00 0.00 0.00 0.00 0.00 0.00 0.00 0.00 0.00 0.00 0.00 0.00 0.00 0.00 0.00 0.00 0.00 0.00 0.00 0.00 0.00 0.00 0.00 0.00 0.00 0.00 0.00 0.00 0.00 0.00 0.00 0.00 0.00
0.05 0.03 0.01 0.01 0.01 0.00 0.00 0.00 0.00 0.00 0.00 0.00 0.00 0.00 0.00 0.00 0.00 0.00 0.00 0.00 0.00 0.00 0.00 0.00 0.00 0.00 0.00 0.00 0.00 0.00 0.00 0.00 0.00 0.00 0.00 0.00 0.00 0.00 0.00 0.00 0.00 0.00 0.00 0.00
0.10 0.07 0.03 0.02 0.01 0.00 0.00 0.00 0.00 0.00 0.00 0.00 0.00 0.00 0.00 0.00 0.00 0.00 0.00 0.00 0.00 0.00 0.00 0.00 0.00 0.00 0.00 0.00 0.00 0.00 0.00 0.00 0.00 0.00 0.00 0.00 0.00 0.00 0.00 0.00 0.00 0.00 0.00 0.00
0.18 0.13 0.07 0.06 0.05 0.01 0.00 0.00 0.00 0.00 0.00 0.00 0.00 0.00 0.00 0.00 0.00 0.00 0.00 0.00 0.00 0.00 0.00 0.00 0.00 0.00 0.00 0.00 0.00 0.00 0.00 0.00 0.00 0.00 0.00 0.00 0.00 0.00 0.00 0.00 0.00 0.00 0.00 0.00

GEFSNGP_prec_meanprecacc_102.txt.gz
Total_Precipitation_Accumulation
0.29 0.30 0.27 0.26 0.20 0.19 0.18 0.19 0.41 0.70 0.97 1.33 1.51 1.42 1.39 1.35 1.11 0.86 0.75 0.71 0.72 0.72 0.65 0.58 0.55 0.53 0.50 0.49 0.47 0.47 0.48 0.50 0.47 0.42 0.39 0.39 0.40 0.44 0.43 0.38 0.35 0.33 0.30 0.27
0.25 0.20 0.23 0.28 0.28 0.29 0.33 0.36 0.47 0.78 1.20 1.60 1.68 1.52 1.44 1.39 1.25 1.07 0.97 0.94 0.91 0.84 0.77 0.73 0.71 0.66 0.63 0.60 0.58 0.57 0.58 0.58 0.59 0.58 0.55 0.51 0.46 0.41 0.36 0.31 0.25 0.19 0.15 0.15
0.38 0.23 0.33 0.55 0.44 0.36 0.41 0.48 0.62 0.98 1.24 1.35 1.41 1.46 1.51 1.58 1.51 1.29 1.14 1.09 1.08 1.04 0.97 0.90 0.87 0.82 0.79 0.74 0.69 0.68 0.67 0.66 0.65 0.61 0.56 0.46 0.36 0.29 0.24 0.22 0.20 0.17 0.13 0.10
0.37 0.41 0.76 0.68 0.34 0.32 0.44 0.53 0.60 0.74 0.86 0.98 1.03 1.13 1.20 1.28 1.29 1.22 1.12 1.09 1.08 1.06 1.06 1.02 0.95 0.87 0.84 0.79 0.74 0.70 0.69 0.64 0.59 0.51 0.43 0.34 0.27 0.23 0.20 0.20 0.21 0.20 0.16 0.14
0.39 0.56 0.71 0.63 0.33 0.30 0.57 0.91 0.71 0.69 0.64 0.62 0.63 0.71 0.94 1.06 1.07 1.12 1.19 1.22 1.17 1.10 1.02 0.98 0.93 0.87 0.84 0.83 0.78 0.69 0.62 0.53 0.43 0.35 0.30 0.25 0.22 0.20 0.20 0.19 0.18 0.16 0.16 0.16
0.42 0.64 0.85 0.82 0.33 0.21 0.46 1.13 0.93 0.77 0.71 0.67 0.74 0.86 0.90 0.89 0.89 0.97 1.03 1.05 0.98 0.89 0.80 0.78 0.78 0.75 0.69 0.65 0.61 0.53 0.41 0.33 0.29 0.27 0.26 0.24 0.21 0.19 0.18 0.18 0.16 0.13 0.11 0.13
0.50 0.73 0.91 0.44 0.16 0.28 0.81 1.11 0.97 0.80 0.71 0.71 0.89 0.88 0.67 0.63 0.67 0.72 0.78 0.77 0.72 0.68 0.70 0.70 0.62 0.53 0.48 0.43 0.40 0.33 0.27 0.24 0.22 0.21 0.19 0.21 0.22 0.20 0.19 0.18 0.18 0.16 0.14 0.13
0.62 0.84 0.93 0.33 0.19 0.43 0.60 0.57 0.65 0.64 0.63 0.61 0.56 0.45 0.41 0.41 0.45 0.48 0.51 0.52 0.51 0.53 0.55 0.52 0.43 0.37 0.36 0.34 0.27 0.22 0.23 0.25 0.24 0.20 0.15 0.18 0.25 0.24 0.22 0.23 0.24 0.23 0.21 0.18
0.63 0.77 0.62 0.31 0.24 0.28 0.34 0.47 0.47 0.43 0.40 0.32 0.29 0.26 0.26 0.28 0.30 0.32 0.34 0.38 0.41 0.38 0.38 0.37 0.35 0.34 0.34 0.31 0.25 0.24 0.27 0.30 0.26 0.20 0.18 0.21 0.25 0.26 0.25 0.25 0.22 0.19 0.19 0.18
0.39 0.46 0.37 0.30 0.24 0.21 0.23 0.30 0.28 0.28 0.28 0.21 0.20 0.23 0.25 0.27 0.25 0.25 0.29 0.31 0.33 0.31 0.31 0.32 0.32 0.32 0.32 0.29 0.28 0.34 0.38 0.33 0.25 0.23 0.22 0.23 0.22 0.20 0.18 0.20 0.17 0.16 0.17 0.15
0.33 0.38 0.39 0.41 0.25 0.16 0.16 0.17 0.17 0.22 0.22 0.18 0.15 0.19 0.20 0.23 0.24 0.25 0.27 0.28 0.29 0.31 0.30 0.26 0.25 0.25 0.24 0.27 0.32 0.42 0.40 0.32 0.25 0.21 0.21 0.21 0.18 0.12 0.09 0.08 0.06 0.09 0.11 0.10
0.32 0.30 0.36 0.42 0.27 0.16 0.19 0.19 0.19 0.18 0.18 0.19 0.16 0.16 0.18 0.20 0.23 0.24 0.22 0.23 0.27 0.29 0.25 0.23 0.22 0.22 0.21 0.25 0.29 0.37 0.38 0.27 0.20 0.16 0.15 0.13 0.14 0.13 0.07 0.03 0.02 0.02 0.03 0.03
0.18 0.17 0.20 0.18 0.13 0.13 0.16 0.18 0.20 0.20 0.18 0.18 0.19 0.18 0.18 0.19 0.19 0.20 0.20 0.21 0.25 0.26 0.23 0.20 0.19 0.20 0.18 0.19 0.21 0.26 0.28 0.20 0.15 0.13 0.13 0.13 0.13 0.19 0.19 0.09 0.03 0.02 0.02 0.02
0.07 0.10 0.14 0.14 0.15 0.14 0.16 0.19 0.19 0.18 0.19 0.21 0.19 0.16 0.14 0.13 0.14 0.17 0.18 0.16 0.14 0.15 0.17 0.18 0.16 0.14 0.12 0.12 0.16 0.15 0.12 0.08 0.07 0.10 0.10 0.10 0.09 0.11 0.14 0.19 0.18 0.12 0.05 0.02
0.08 0.10 0.14 0.16 0.20 0.18 0.19 0.22 0.21 0.18 0.18 0.18 0.15 0.11 0.10 0.10 0.12 0.13 0.12 0.10 0.11 0.14 0.13 0.13 0.12 0.11 0.07 0.08 0.10 0.09 0.07 0.07 0.06 0.06 0.04 0.05 0.05 0.05 0.05 0.09 0.16 0.19 0.14 0.07
0.11 0.11 0.12 0.17 0.23 0.24 0.24 0.24 0.21 0.16 0.11 0.10 0.09 0.08 0.08 0.08 0.08 0.08 0.08 0.08 0.13 0.16 0.14 0.13 0.12 0.09 0.05 0.05 0.06 0.06 0.05 0.04 0.04 0.03 0.02 0.02 0.03 0.02 0.03 0.05 0.09 0.13 0.13 0.08
0.13 0.11 0.11 0.13 0.16 0.19 0.17 0.13 0.10 0.08 0.06 0.05 0.05 0.04 0.04 0.05 0.06 0.07 0.08 0.09 0.13 0.15 0.13 0.12 0.09 0.04 0.02 0.02 0.04 0.04 0.02 0.01 0.01 0.01 0.01 0.01 0.01 0.02 0.02 0.02 0.05 0.08 0.06 0.04
0.13 0.12 0.10 0.10 0.10 0.10 0.08 0.05 0.04 0.04 0.03 0.02 0.02 0.02 0.03 0.05 0.06 0.06 0.06 0.06 0.08 0.11 0.10 0.05 0.03 0.02 0.01 0.01 0.02 0.02 0.01 0.01 0.01 0.00 0.00 0.00 0.01 0.01 0.01 0.02 0.03 0.04 0.05 0.05
0.07 0.05 0.05 0.05 0.05 0.04 0.03 0.03 0.02 0.01 0.01 0.01 0.01 0.03 0.04 0.04 0.03 0.03 0.03 0.04 0.07 0.09 0.07 0.03 0.01 0.02 0.01 0.01 0.01 0.01 0.00 0.00 0.00 0.00 0.00 0.00 0.00 0.00 0.00 0.01 0.02 0.03 0.04 0.05
0.03 0.02 0.02 0.02 0.02 0.02 0.02 0.02 0.01 0.01 0.01 0.01 0.02 0.03 0.02 0.02 0.01 0.01 0.03 0.05 0.06 0.05 0.02 0.01 0.01 0.02 0.01 0.01 0.00 0.00 0.00 0.00 0.00 0.00 0.00 0.00 0.00 0.00 0.00 0.00 0.01 0.02 0.03 0.04
0.02 0.02 0.01 0.01 0.01 0.01 0.01 0.01 0.01 0.01 0.01 0.01 0.02 0.02 0.02 0.01 0.01 0.01 0.02 0.04 0.05 0.03 0.01 0.00 0.01 0.01 0.01 0.00 0.00 0.00 0.00 0.00 0.00 0.00 0.00 0.00 0.00 0.00 0.00 0.00 0.01 0.01 0.02 0.03
0.02 0.01 0.02 0.01 0.01 0.01 0.01 0.01 0.01 0.01 0.01 0.01 0.01 0.01 0.01 0.01 0.01 0.01 0.02 0.04 0.03 0.01 0.01 0.00 0.01 0.00 0.00 0.00 0.00 0.00 0.00 0.00 0.00 0.00 0.00 0.00 0.00 0.00 0.01 0.01 0.01 0.01 0.02 0.03
0.05 0.02 0.02 0.01 0.01 0.01 0.01 0.01 0.01 0.00 0.00 0.00 0.00 0.01 0.01 0.01 0.00 0.01 0.02 0.02 0.01 0.00 0.01 0.01 0.00 0.00 0.00 0.00 0.00 0.00 0.00 0.00 0.00 0.00 0.00 0.00 0.00 0.00 0.00 0.00 0.00 0.01 0.01 0.01
0.09 0.04 0.02 0.02 0.02 0.02 0.02 0.01 0.00 0.00 0.00 0.00 0.00 0.00 0.01 0.01 0.00 0.00 0.00 0.00 0.00 0.00 0.00 0.00 0.00 0.00 0.00 0.00 0.00 0.00 0.00 0.00 0.00 0.00 0.00 0.00 0.00 0.00 0.00 0.00 0.00 0.00 0.00 0.00
0.07 0.05 0.03 0.03 0.04 0.04 0.02 0.01 0.01 0.01 0.00 0.00 0.00 0.00 0.00 0.00 0.00 0.00 0.00 0.00 0.00 0.00 0.00 0.00 0.00 0.00 0.00 0.00 0.00 0.00 0.00 0.00 0.00 0.00 0.00 0.00 0.00 0.00 0.00 0.00 0.00 0.00 0.00 0.00
0.11 0.10 0.07 0.05 0.04 0.04 0.02 0.00 0.00 0.01 0.01 0.01 0.00 0.00 0.00 0.00 0.00 0.00 0.00 0.00 0.00 0.00 0.00 0.00 0.00 0.00 0.00 0.00 0.00 0.00 0.00 0.00 0.00 0.00 0.00 0.00 0.00 0.00 0.00 0.00 0.00 0.00 0.00 0.00
0.20 0.17 0.11 0.09 0.07 0.03 0.01 0.00 0.00 0.00 0.00 0.00 0.00 0.00 0.00 0.00 0.00 0.00 0.00 0.00 0.00 0.00 0.00 0.00 0.00 0.00 0.00 0.00 0.00 0.00 0.00 0.00 0.00 0.00 0.00 0.00 0.00 0.00 0.00 0.00 0.00 0.00 0.00 0.00

GEFSNGP_prec_meanprecacc_108.txt.gz
Total_Precipitation_Accumulation
0.30 0.31 0.28 0.27 0.21 0.20 0.20 0.23 0.46 0.75 1.05 1.44 1.64 1.55 1.51 1.44 1.19 0.93 0.82 0.79 0.78 0.74 0.66 0.59 0.55 0.53 0.50 0.49 0.47 0.47 0.49 0.51 0.48 0.43 0.40 0.40 0.41 0.44 0.43 0.38 0.35 0.33 0.30 0.27
0.25 0.21 0.25 0.29 0.30 0.32 0.36 0.40 0.52 0.84 1.30 1.74 1.82 1.66 1.57 1.49 1.32 1.15 1.06 1.00 0.94 0.86 0.78 0.74 0.71 0.67 0.63 0.60 0.58 0.57 0.58 0.60 0.61 0.59 0.56 0.52 0.47 0.42 0.37 0.31 0.25 0.20 0.15 0.15
0.39 0.24 0.34 0.59 0.49 0.42 0.48 0.55 0.70 1.08 1.38 1.51 1.58 1.62 1.64 1.66 1.56 1.36 1.24 1.14 1.10 1.06 0.98 0.92 0.87 0.83 0.79 0.74 0.69 0.68 0.68 0.67 0.66 0.63 0.57 0.48 0.37 0.30 0.26 0.23 0.20 0.17 0.13 0.10
0.39 0.43 0.80 0.77 0.44 0.43 0.55 0.64 0.74 0.90 1.05 1.15 1.17 1.24 1.29 1.36 1.39 1.31 1.20 1.14 1.11 1.09 1.08 1.04 0.96 0.88 0.84 0.79 0.74 0.70 0.70 0.66 0.61 0.53 0.45 0.36 0.29 0.25 0.22 0.21 0.22 0.20 0.17 0.14
0.41 0.60 0.77 0.73 0.42 0.38 0.68 1.08 0.89 0.84 0.79 0.73 0.70 0.77 1.02 1.15 1.15 1.19 1.23 1.25 1.19 1.12 1.03 1.00 0.95 0.88 0.85 0.84 0.79 0.70 0.64 0.55 0.46 0.38 0.33 0.27 0.24 0.22 0.21 0.20 0.18 0.17 0.16 0.17
0.45 0.70 0.95 0.93 0.40 0.27 0.56 1.30 1.08 0.89 0.79 0.73 0.79 0.91 0.96 0.95 0.94 1.00 1.06 1.06 0.99 0.90 0.81 0.78 0.79 0.76 0.70 0.67 0.62 0.54 0.43 0.35 0.31 0.30 0.28 0.26 0.23 0.21 0.20 0.19 0.17 0.14 0.12 0.13
0.55 0.81 1.02 0.53 0.20 0.32 0.88 1.22 1.05 0.88 0.77 0.75 0.92 0.91 0.71 0.66 0.71 0.75 0.80 0.79 0.73 0.69 0.71 0.70 0.63 0.53 0.49 0.44 0.40 0.34 0.28 0.26 0.24 0.23 0.21 0.22 0.23 0.22 0.21 0.20 0.20 0.17 0.15 0.14
0.68 0.93 1.04 0.41 0.24 0.49 0.66 0.61 0.69 0.69 0.65 0.62 0.58 0.47 0.44 0.44 0.48 0.51 0.53 0.54 0.52 0.54 0.56 0.53 0.43 0.38 0.37 0.34 0.28 0.23 0.24 0.26 0.25 0.21 0.16 0.19 0.27 0.26 0.24 0.25 0.26 0.24 0.22 0.19
0.69 0.86 0.71 0.36 0.28 0.32 0.37 0.50 0.49 0.46 0.42 0.33 0.30 0.27 0.29 0.31 0.32 0.34 0.36 0.40 0.43 0.41 0.39 0.39 0.37 0.36 0.36 0.33 0.26 0.25 0.28 0.31 0.27 0.21 0.19 0.22 0.26 0.27 0.25 0.26 0.23 0.19 0.20 0.19
0.46 0.57 0.45 0.35 0.28 0.26 0.27 0.33 0.30 0.30 0.29 0.22 0.21 0.24 0.27 0.29 0.26 0.27 0.31 0.33 0.35 0.34 0.33 0.34 0.34 0.35 0.36 0.31 0.29 0.34 0.39 0.34 0.26 0.24 0.23 0.24 0.23 0.20 0.19 0.20 0.17 0.16 0.17 0.16
0.43 0.50 0.46 0.45 0.28 0.21 0.20 0.18 0.18 0.23 0.22 0.18 0.16 0.21 0.23 0.25 0.26 0.27 0.28 0.29 0.31 0.33 0.32 0.28 0.26 0.27 0.26 0.29 0.33 0.43 0.42 0.33 0.26 0.23 0.22 0.22 0.18 0.12 0.09 0.08 0.06 0.09 0.12 0.11
0.37 0.36 0.41 0.46 0.29 0.18 0.21 0.20 0.19 0.18 0.18 0.20 0.18 0.19 0.20 0.22 0.25 0.26 0.23 0.24 0.28 0.29 0.27 0.24 0.23 0.23 0.22 0.26 0.30 0.38 0.39 0.28 0.21 0.17 0.16 0.14 0.14 0.13 0.07 0.03 0.02 0.02 0.03 0.03
0.20 0.19 0.23 0.20 0.14 0.14 0.17 0.19 0.20 0.20 0.18 0.20 0.20 0.19 0.19 0.20 0.20 0.21 0.22 0.22 0.26 0.27 0.24 0.21 0.20 0.21 0.20 0.20 0.22 0.27 0.29 0.21 0.15 0.13 0.14 0.13 0.13 0.19 0.20 0.09 0.03 0.02 0.02 0.02
0.08 0.11 0.15 0.15 0.16 0.15 0.17 0.20 0.19 0.18 0.20 0.22 0.21 0.18 0.16 0.15 0.15 0.18 0.19 0.17 0.15 0.16 0.17 0.19 0.17 0.15 0.12 0.12 0.17 0.16 0.13 0.08 0.08 0.11 0.11 0.10 0.09 0.11 0.14 0.19 0.18 0.12 0.05 0.02
0.08 0.11 0.15 0.17 0.20 0.18 0.19 0.22 0.21 0.18 0.18 0.19 0.16 0.13 0.11 0.11 0.13 0.13 0.12 0.10 0.12 0.15 0.14 0.13 0.13 0.11 0.08 0.08 0.10 0.10 0.07 0.07 0.07 0.06 0.04 0.05 0.05 0.05 0.05 0.09 0.16 0.19 0.14 0.07
0.12 0.12 0.13 0.17 0.23 0.24 0.24 0.25 0.21 0.17 0.12 0.11 0.10 0.09 0.09 0.09 0.08 0.08 0.08 0.08 0.13 0.16 0.14 0.13 0.12 0.09 0.05 0.05 0.07 0.07 0.06 0.04 0.05 0.04 0.02 0.02 0.03 0.03 0.03 0.05 0.09 0.13 0.13 0.08
0.14 0.12 0.12 0.14 0.17 0.20 0.17 0.13 0.11 0.08 0.06 0.06 0.06 0.05 0.05 0.06 0.07 0.08 0.08 0.09 0.13 0.15 0.14 0.12 0.09 0.04 0.02 0.02 0.04 0.04 0.03 0.02 0.01 0.01 0.01 0.01 0.02 0.02 0.02 0.02 0.05 0.08 0.06 0.05
0.15 0.12 0.11 0.10 0.10 0.10 0.08 0.06 0.04 0.04 0.03 0.02 0.02 0.03 0.04 0.06 0.06 0.06 0.06 0.06 0.09 0.12 0.10 0.05 0.04 0.03 0.02 0.01 0.02 0.02 0.02 0.02 0.01 0.01 0.01 0.01 0.01 0.02 0.01 0.02 0.04 0.05 0.05 0.05
0.08 0.05 0.05 0.05 0.05 0.04 0.03 0.03 0.03 0.02 0.01 0.01 0.01 0.03 0.04 0.04 0.03 0.03 0.03 0.05 0.07 0.09 0.07 0.03 0.01 0.02 0.02 0.01 0.01 0.01 0.01 0.01 0.00 0.00 0.00 0.00 0.01 0.01 0.01 0.01 0.02 0.03 0.04 0.05
0.03 0.02 0.02 0.03 0.02 0.02 0.02 0.02 0.01 0.01 0.01 0.01 0.02 0.03 0.03 0.02 0.01 0.01 0.03 0.05 0.06 0.05 0.03 0.01 0.01 0.02 0.01 0.01 0.00 0.00 0.00 0.00 0.00 0.00 0.00 0.00 0.00 0.00 0.00 0.00 0.01 0.02 0.03 0.04
0.02 0.02 0.02 0.01 0.02 0.01 0.01 0.01 0.01 0.02 0.01 0.01 0.02 0.02 0.02 0.01 0.01 0.01 0.03 0.05 0.05 0.03 0.01 0.01 0.01 0.01 0.01 0.00 0.00 0.00 0.00 0.00 0.00 0.00 0.00 0.00 0.00 0.00 0.00 0.00 0.01 0.01 0.02 0.03
0.03 0.02 0.02 0.01 0.01 0.01 0.01 0.02 0.02 0.02 0.01 0.01 0.01 0.01 0.01 0.01 0.01 0.01 0.02 0.04 0.04 0.01 0.01 0.00 0.01 0.01 0.00 0.00 0.00 0.00 0.00 0.00 0.00 0.00 0.00 0.00 0.00 0.00 0.01 0.01 0.01 0.01 0.02 0.03
0.06 0.03 0.02 0.02 0.01 0.01 0.02 0.03 0.01 0.01 0.01 0.01 0.01 0.01 0.01 0.01 0.00 0.01 0.02 0.02 0.01 0.00 0.01 0.01 0.00 0.00 0.00 0.00 0.00 0.00 0.00 0.00 0.00 0.00 0.00 0.00 0.00 0.00 0.00 0.00 0.00 0.01 0.01 0.01
0.10 0.05 0.03 0.02 0.03 0.03 0.02 0.01 0.01 0.01 0.00 0.00 0.00 0.01 0.01 0.01 0.00 0.00 0.00 0.00 0.00 0.00 0.00 0.00 0.00 0.00 0.00 0.00 0.00 0.00 0.00 0.00 0.00 0.00 0.00 0.00 0.00 0.00 0.00 0.00 0.00 0.00 0.00 0.00
0.08 0.06 0.04 0.04 0.05 0.04 0.03 0.02 0.01 0.01 0.01 0.00 0.00 0.00 0.00 0.00 0.00 0.00 0.00 0.00 0.00 0.00 0.00 0.00 0.00 0.00 0.00 0.00 0.00 0.00 0.00 0.00 0.00 0.00 0.00 0.00 0.00 0.00 0.00 0.00 0.00 0.00 0.00 0.00
0.12 0.12 0.08 0.06 0.05 0.04 0.02 0.02 0.02 0.02 0.02 0.01 0.01 0.00 0.00 0.00 0.00 0.00 0.00 0.00 0.00 0.00 0.00 0.00 0.00 0.00 0.00 0.00 0.00 0.00 0.00 0.00 0.00 0.00 0.00 0.00 0.00 0.00 0.00 0.00 0.00 0.00 0.00 0.00
0.20 0.18 0.12 0.10 0.08 0.04 0.02 0.02 0.02 0.03 0.02 0.02 0.01 0.01 0.00 0.00 0.00 0.00 0.00 0.00 0.00 0.00 0.00 0.00 0.00 0.00 0.00 0.00 0.00 0.00 0.00 0.00 0.00 0.00 0.00 0.00 0.00 0.00 0.00 0.00 0.00 0.00 0.00 0.00

GEFSNGP_prec_meanprecacc_114.txt.gz
Total_Precipitation_Accumulation
0.30 0.31 0.29 0.27 0.22 0.21 0.21 0.24 0.47 0.78 1.08 1.47 1.67 1.58 1.54 1.46 1.22 0.97 0.86 0.82 0.80 0.77 0.69 0.61 0.57 0.54 0.50 0.49 0.47 0.47 0.49 0.52 0.49 0.43 0.40 0.40 0.41 0.44 0.43 0.39 0.36 0.35 0.31 0.28
0.26 0.21 0.26 0.31 0.31 0.33 0.37 0.42 0.55 0.87 1.33 1.76 1.85 1.69 1.60 1.53 1.36 1.18 1.10 1.04 0.98 0.90 0.83 0.78 0.74 0.68 0.63 0.60 0.58 0.57 0.59 0.62 0.63 0.61 0.57 0.52 0.47 0.43 0.37 0.33 0.27 0.21 0.16 0.15
0.39 0.24 0.35 0.60 0.50 0.44 0.50 0.57 0.72 1.10 1.41 1.54 1.62 1.66 1.68 1.72 1.62 1.42 1.30 1.21 1.15 1.10 1.02 0.96 0.92 0.87 0.81 0.75 0.70 0.68 0.68 0.69 0.68 0.64 0.58 0.49 0.38 0.32 0.28 0.25 0.22 0.19 0.14 0.10
0.39 0.43 0.81 0.80 0.47 0.45 0.57 0.66 0.76 0.92 1.09 1.21 1.22 1.28 1.34 1.43 1.47 1.40 1.27 1.20 1.16 1.14 1.12 1.10 1.00 0.92 0.86 0.80 0.74 0.71 0.71 0.68 0.63 0.55 0.48 0.38 0.31 0.27 0.25 0.23 0.23 0.22 0.18 0.15
0.41 0.60 0.79 0.76 0.45 0.41 0.71 1.11 0.92 0.87 0.81 0.77 0.75 0.83 1.09 1.24 1.27 1.29 1.32 1.31 1.24 1.16 1.08 1.04 0.99 0.92 0.87 0.84 0.79 0.71 0.66 0.57 0.47 0.40 0.35 0.29 0.26 0.24 0.23 0.21 0.20 0.18 0.17 0.17
0.46 0.71 0.96 0.95 0.42 0.29 0.58 1.33 1.10 0.92 0.83 0.77 0.83 0.97 1.02 1.01 0.99 1.05 1.11 1.12 1.05 0.94 0.85 0.82 0.82 0.79 0.72 0.68 0.64 0.56 0.45 0.37 0.32 0.30 0.29 0.27 0.24 0.23 0.22 0.21 0.20 0.16 0.14 0.15
0.56 0.83 1.04 0.54 0.22 0.35 0.92 1.23 1.07 0.91 0.80 0.77 0.94 0.93 0.73 0.68 0.73 0.76 0.82 0.81 0.76 0.72 0.74 0.73 0.66 0.56 0.51 0.45 0.41 0.35 0.29 0.26 0.25 0.24 0.21 0.23 0.24 0.23 0.23 0.22 0.23 0.21 0.19 0.17
0.68 0.94 1.05 0.42 0.26 0.50 0.67 0.62 0.70 0.72 0.68 0.63 0.58 0.48 0.44 0.45 0.49 0.52 0.55 0.56 0.55 0.56 0.59 0.57 0.46 0.40 0.39 0.35 0.28 0.23 0.24 0.26 0.26 0.22 0.17 0.20 0.27 0.27 0.25 0.28 0.30 0.29 0.26 0.23
0.69 0.87 0.71 0.37 0.29 0.33 0.38 0.51 0.50 0.47 0.42 0.33 0.30 0.27 0.29 0.32 0.33 0.36 0.38 0.42 0.45 0.43 0.43 0.43 0.40 0.38 0.37 0.34 0.26 0.25 0.29 0.31 0.27 0.22 0.20 0.23 0.27 0.27 0.26 0.27 0.25 0.24 0.23 0.22
0.46 0.58 0.46 0.36 0.28 0.26 0.28 0.34 0.30 0.30 0.30 0.22 0.22 0.25 0.27 0.30 0.29 0.29 0.32 0.34 0.37 0.36 0.35 0.37 0.36 0.36 0.37 0.32 0.30 0.36 0.40 0.36 0.27 0.25 0.24 0.24 0.24 0.21 0.19 0.20 0.18 0.17 0.19 0.17
0.44 0.51 0.47 0.46 0.28 0.22 0.20 0.19 0.18 0.23 0.23 0.19 0.16 0.21 0.24 0.27 0.28 0.29 0.30 0.32 0.33 0.34 0.33 0.28 0.27 0.28 0.28 0.31 0.35 0.45 0.44 0.34 0.27 0.24 0.23 0.22 0.19 0.13 0.09 0.09 0.07 0.10 0.13 0.12
0.38 0.36 0.42 0.47 0.30 0.20 0.22 0.21 0.19 0.18 0.19 0.21 0.19 0.20 0.21 0.23 0.26 0.27 0.25 0.26 0.30 0.31 0.28 0.25 0.24 0.24 0.25 0.30 0.32 0.39 0.40 0.29 0.22 0.18 0.16 0.14 0.14 0.14 0.07 0.03 0.03 0.03 0.04 0.04
0.20 0.19 0.23 0.21 0.15 0.15 0.17 0.19 0.21 0.20 0.19 0.20 0.22 0.21 0.20 0.21 0.21 0.23 0.23 0.24 0.27 0.28 0.26 0.22 0.21 0.22 0.21 0.22 0.25 0.28 0.29 0.21 0.16 0.14 0.14 0.14 0.13 0.19 0.20 0.09 0.03 0.02 0.02 0.03
0.08 0.11 0.16 0.16 0.16 0.15 0.17 0.20 0.19 0.18 0.20 0.23 0.23 0.20 0.16 0.15 0.16 0.19 0.19 0.18 0.16 0.17 0.19 0.21 0.18 0.16 0.13 0.13 0.17 0.16 0.13 0.08 0.08 0.11 0.11 0.10 0.09 0.11 0.14 0.19 0.19 0.12 0.05 0.03
0.08 0.11 0.16 0.18 0.20 0.19 0.19 0.22 0.21 0.19 0.19 0.20 0.17 0.14 0.11 0.11 0.13 0.13 0.12 0.10 0.12 0.16 0.16 0.14 0.13 0.12 0.08 0.08 0.11 0.10 0.07 0.07 0.07 0.06 0.05 0.05 0.05 0.06 0.06 0.09 0.16 0.20 0.15 0.08
0.13 0.12 0.13 0.18 0.23 0.24 0.24 0.25 0.21 0.17 0.13 0.11 0.10 0.09 0.09 0.09 0.08 0.08 0.08 0.09 0.14 0.17 0.15 0.13 0.12 0.09 0.05 0.06 0.07 0.07 0.06 0.04 0.05 0.04 0.02 0.02 0.03 0.03 0.03 0.05 0.09 0.14 0.14 0.09
0.15 0.13 0.12 0.14 0.17 0.20 0.17 0.13 0.11 0.09 0.07 0.06 0.06 0.05 0.05 0.06 0.07 0.08 0.08 0.09 0.14 0.15 0.14 0.12 0.09 0.05 0.02 0.02 0.04 0.04 0.03 0.02 0.01 0.01 0.01 0.01 0.02 0.02 0.02 0.03 0.06 0.08 0.07 0.05
0.15 0.13 0.11 0.10 0.10 0.10 0.08 0.06 0.04 0.05 0.04 0.02 0.02 0.03 0.04 0.06 0.06 0.06 0.06 0.06 0.09 0.12 0.11 0.06 0.04 0.03 0.02 0.01 0.02 0.02 0.02 0.02 0.01 0.01 0.01 0.01 0.01 0.02 0.02 0.02 0.04 0.05 0.05 0.05
0.08 0.06 0.05 0.05 0.05 0.04 0.03 0.03 0.03 0.02 0.01 0.01 0.01 0.03 0.04 0.04 0.03 0.03 0.03 0.05 0.07 0.10 0.08 0.03 0.02 0.02 0.02 0.01 0.01 0.01 0.01 0.01 0.00 0.00 0.00 0.00 0.01 0.01 0.01 0.01 0.02 0.03 0.04 0.06
0.03 0.02 0.02 0.03 0.02 0.02 0.02 0.02 0.01 0.01 0.01 0.01 0.02 0.03 0.03 0.02 0.01 0.02 0.03 0.06 0.06 0.05 0.03 0.01 0.01 0.02 0.02 0.01 0.00 0.00 0.00 0.00 0.00 0.00 0.00 0.00 0.00 0.00 0.00 0.00 0.01 0.02 0.03 0.04
0.02 0.02 0.02 0.01 0.02 0.01 0.01 0.01 0.02 0.02 0.02 0.01 0.02 0.02 0.02 0.01 0.01 0.01 0.03 0.05 0.05 0.03 0.02 0.01 0.01 0.01 0.01 0.00 0.00 0.00 0.00 0.00 0.00 0.00 0.00 0.00 0.00 0.00 0.00 0.00 0.01 0.01 0.02 0.03
0.03 0.02 0.02 0.01 0.01 0.01 0.01 0.02 0.02 0.02 0.01 0.01 0.01 0.01 0.01 0.01 0.01 0.01 0.02 0.04 0.04 0.02 0.01 0.00 0.01 0.01 0.00 0.00 0.00 0.00 0.00 0.00 0.00 0.00 0.00 0.00 0.00 0.00 0.01 0.01 0.01 0.01 0.02 0.03
0.06 0.03 0.02 0.02 0.01 0.01 0.02 0.03 0.01 0.01 0.01 0.01 0.01 0.01 0.01 0.01 0.00 0.01 0.02 0.02 0.01 0.00 0.01 0.01 0.00 0.00 0.00 0.00 0.00 0.00 0.00 0.00 0.00 0.00 0.00 0.00 0.00 0.00 0.00 0.00 0.00 0.01 0.01 0.01
0.10 0.05 0.03 0.03 0.03 0.03 0.02 0.01 0.01 0.01 0.00 0.00 0.00 0.01 0.01 0.01 0.00 0.00 0.00 0.00 0.00 0.00 0.00 0.00 0.00 0.00 0.00 0.00 0.00 0.00 0.00 0.00 0.00 0.00 0.00 0.00 0.00 0.00 0.00 0.00 0.00 0.00 0.00 0.00
0.08 0.06 0.04 0.04 0.05 0.04 0.03 0.02 0.01 0.01 0.01 0.01 0.00 0.00 0.00 0.00 0.00 0.00 0.00 0.00 0.00 0.00 0.00 0.00 0.00 0.00 0.00 0.00 0.00 0.00 0.00 0.00 0.00 0.00 0.00 0.00 0.00 0.00 0.00 0.00 0.00 0.00 0.00 0.00
0.12 0.12 0.08 0.06 0.05 0.04 0.03 0.02 0.02 0.03 0.02 0.01 0.01 0.01 0.01 0.00 0.00 0.00 0.00 0.00 0.00 0.00 0.00 0.00 0.00 0.00 0.00 0.00 0.00 0.00 0.00 0.00 0.00 0.00 0.00 0.00 0.00 0.00 0.00 0.00 0.00 0.00 0.00 0.00
0.21 0.18 0.13 0.11 0.08 0.04 0.02 0.02 0.02 0.03 0.02 0.02 0.02 0.01 0.01 0.01 0.00 0.00 0.00 0.00 0.00 0.00 0.00 0.00 0.00 0.00 0.00 0.00 0.00 0.00 0.00 0.00 0.00 0.00 0.00 0.00 0.00 0.00 0.00 0.00 0.00 0.00 0.00 0.00